Location: Caltech
(34.1382°N, 118.1253°W)
Time: 17:02:14
(UTC-07:00)

ARGOS - Visible Passes

Search period start: 30 June 2015 00:00
Search period end: 10 July 2015 00:00
Orbit: 820 x 836 km, 98.7° (Epoch: 30 June)

Date Brightness Start Highest point End Pass type
(mag) Time Alt. Az. Time Alt. Az. Time Alt. Az.
30 Jun 5.0 21:05:31 10° E 21:08:17 15° ENE 21:11:19 10° NNE visible
30 Jun 3.4 22:46:54 49° SSW 22:48:05 62° W 22:53:25 10° NNW visible
01 Jul 3.0 22:28:11 52° SSE 22:29:35 88° ENE 22:35:00 10° NNW visible
02 Jul 3.3 22:09:28 40° SE 22:11:08 58° ENE 22:16:25 10° N visible
02 Jul 5.3 23:50:59 14° WSW 23:51:50 14° W 23:54:30 10° WNW visible
03 Jul 3.8 21:50:45 28° ESE 21:52:43 38° ENE 21:57:41 10° N visible
03 Jul 4.8 23:32:16 21° WSW 23:33:07 22° W 23:37:09 10° NW visible
04 Jul 4.4 21:32:02 19° ESE 21:34:20 26° ENE 21:38:45 10° NNE visible
04 Jul 4.3 23:13:34 32° WSW 23:14:28 33° W 23:19:15 10° NNW visible
05 Jul 4.8 21:13:20 12° E 21:15:59 18° ENE 21:19:32 10° NNE visible
05 Jul 3.6 22:54:51 45° SW 22:55:52 51° W 23:01:06 10° NNW visible
06 Jul 5.2 20:56:08 10° E 20:57:41 11° ENE 20:59:34 10° NE visible
06 Jul 3.1 22:36:08 55° S 22:37:21 79° WSW 22:42:45 10° NNW visible
07 Jul 3.1 22:17:26 47° SE 22:18:53 70° ENE 22:24:14 10° N visible
07 Jul 5.5 23:58:57 11° W 23:59:44 12° W 00:01:19 10° WNW visible
08 Jul 3.6 21:58:43 34° ESE 22:00:27 46° ENE 22:05:34 10° N visible
08 Jul 5.1 23:40:15 18° WSW 23:40:58 18° W 23:44:31 10° NW visible
09 Jul 4.1 21:40:01 23° ESE 21:42:03 31° ENE 21:46:44 10° N visible
09 Jul 4.5 23:21:32 27° WSW 23:22:18 28° W 23:26:48 10° NW visible
